Year,Month,Day,Hour,Minute,Value (Times are PST for temperature in C)
2015,04,27,00,00,10.90
2015,04,27,00,01,10.80
2015,04,27,00,02,10.80
2015,04,27,00,03,10.80
2015,04,27,00,04,10.80
2015,04,27,00,05,10.80
2015,04,27,00,06,10.80
2015,04,27,00,07,10.80
2015,04,27,00,08,10.80
2015,04,27,00,09,10.80
2015,04,27,00,10,10.80
2015,04,27,00,11,10.80
2015,04,27,00,12,10.80
2015,04,27,00,13,10.80
2015,04,27,00,14,10.80
2015,04,27,00,15,10.80
2015,04,27,00,16,10.80
2015,04,27,00,17,10.80
2015,04,27,00,18,10.80
2015,04,27,00,19,10.90
2015,04,27,00,20,10.90
2015,04,27,00,21,10.90
2015,04,27,00,22,10.90
2015,04,27,00,23,10.80
2015,04,27,00,24,10.90
2015,04,27,00,25,10.80
2015,04,27,00,26,10.80
2015,04,27,00,27,10.80
2015,04,27,00,28,10.80
2015,04,27,00,29,10.80
2015,04,27,00,30,10.90
2015,04,27,00,31,10.90
2015,04,27,00,32,10.90
2015,04,27,00,33,10.90
2015,04,27,00,34,10.90
2015,04,27,00,35,10.90
2015,04,27,00,36,10.90
2015,04,27,00,37,10.90
2015,04,27,00,38,10.90
2015,04,27,00,39,10.90
2015,04,27,00,40,10.90
2015,04,27,00,41,10.90
2015,04,27,00,42,10.90
2015,04,27,00,43,10.90
2015,04,27,00,44,10.90
2015,04,27,00,45,10.90
2015,04,27,00,46,10.90
2015,04,27,00,47,10.90
2015,04,27,00,48,10.90
2015,04,27,00,49,10.90
2015,04,27,00,50,10.90
2015,04,27,00,51,10.90
2015,04,27,00,52,10.90
2015,04,27,00,53,10.90
2015,04,27,00,54,10.90
2015,04,27,00,55,10.90
2015,04,27,00,56,10.80
2015,04,27,00,57,10.80
2015,04,27,00,58,10.80
2015,04,27,00,59,10.80
2015,04,27,01,00,10.80
2015,04,27,01,01,10.80
2015,04,27,01,02,10.80
2015,04,27,01,03,10.80
2015,04,27,01,04,10.80
2015,04,27,01,05,10.80
2015,04,27,01,06,10.80
2015,04,27,07,20,9.40
2015,04,27,07,21,9.40
2015,04,27,07,22,9.40
2015,04,27,07,23,9.40
2015,04,27,07,24,9.40
2015,04,27,07,25,9.40
2015,04,27,07,26,9.40
2015,04,27,07,27,9.40
2015,04,27,07,28,9.50
2015,04,27,07,29,9.50
2015,04,27,07,30,9.50
2015,04,27,07,31,9.50
2015,04,27,07,32,9.50
2015,04,27,07,33,9.40
2015,04,27,07,34,9.40
2015,04,27,07,35,9.40
2015,04,27,07,36,9.40
2015,04,27,07,37,9.40
2015,04,27,07,38,9.40
2015,04,27,07,39,9.40
2015,04,27,07,40,9.40
2015,04,27,07,41,9.40
2015,04,27,07,42,9.40
2015,04,27,07,43,9.40
2015,04,27,07,44,9.40
2015,04,27,07,45,9.40
2015,04,27,07,46,9.40
2015,04,27,07,47,9.50
2015,04,27,07,48,9.40
2015,04,27,07,49,9.40
2015,04,27,07,50,9.40
2015,04,27,07,51,9.40
2015,04,27,07,52,9.40
2015,04,27,07,53,9.40
2015,04,27,07,54,9.40
2015,04,27,07,55,9.40
2015,04,27,07,56,9.40
2015,04,27,07,57,9.40
2015,04,27,07,58,9.40
2015,04,27,07,59,9.50
2015,04,27,08,00,9.50
2015,04,27,08,01,9.50
2015,04,27,08,02,9.50
2015,04,27,08,03,9.50
2015,04,27,08,04,9.50
2015,04,27,08,05,9.50
2015,04,27,08,06,9.50
2015,04,27,08,07,9.50
2015,04,27,08,08,9.50
2015,04,27,08,09,9.50
2015,04,27,08,10,9.50
2015,04,27,08,11,9.50
2015,04,27,08,12,9.50
2015,04,27,08,13,9.50
2015,04,27,08,14,9.50
2015,04,27,08,15,9.50
2015,04,27,08,16,9.50
2015,04,27,08,17,9.50
2015,04,27,08,18,9.50
2015,04,27,08,19,9.50
2015,04,27,08,20,9.60
2015,04,27,08,21,9.60
2015,04,27,08,22,9.60
2015,04,27,08,23,9.60
2015,04,27,08,24,9.60
2015,04,27,08,25,9.60
2015,04,27,08,26,9.60
2015,04,27,08,27,9.60
2015,04,27,08,28,9.60
2015,04,27,08,29,9.60
2015,04,27,08,30,9.60
2015,04,27,08,31,9.60
2015,04,27,08,32,9.60
2015,04,27,08,33,9.60
2015,04,27,08,34,9.60
2015,04,27,08,35,9.60
2015,04,27,08,36,9.60
2015,04,27,08,37,9.70
2015,04,27,08,38,9.70
2015,04,27,08,39,9.70
2015,04,27,08,40,9.70
2015,04,27,08,41,9.70
2015,04,27,08,42,9.70
2015,04,27,08,43,9.70
2015,04,27,08,44,9.70
2015,04,27,08,45,9.80
2015,04,27,08,46,9.80
2015,04,27,08,47,9.80
2015,04,27,08,48,9.80
2015,04,27,08,49,9.80
2015,04,27,08,50,9.80
2015,04,27,08,51,9.80
2015,04,27,08,52,9.80
2015,04,27,08,53,9.80
2015,04,27,08,54,9.70
2015,04,27,08,55,9.70
2015,04,27,08,56,9.70
2015,04,27,08,57,9.70
2015,04,27,08,58,9.70
2015,04,27,08,59,9.70
2015,04,27,09,00,9.70
2015,04,27,09,01,9.70
2015,04,27,09,02,9.70
2015,04,27,09,03,9.70
2015,04,27,09,04,9.70
2015,04,27,09,05,9.70
2015,04,27,09,06,9.70
2015,04,27,09,07,9.70
2015,04,27,09,08,9.70
2015,04,27,09,09,9.70
2015,04,27,09,10,9.70
2015,04,27,09,11,9.70
2015,04,27,09,12,9.70
2015,04,27,09,13,9.80
2015,04,27,09,14,9.80
2015,04,27,09,15,9.80
2015,04,27,09,16,9.80
2015,04,27,09,17,9.80
2015,04,27,09,18,9.80
2015,04,27,09,19,9.90
2015,04,27,09,20,9.90
2015,04,27,09,21,9.90
2015,04,27,09,22,9.90
2015,04,27,09,23,9.90
2015,04,27,09,24,9.90
2015,04,27,09,25,9.90
2015,04,27,09,26,9.90
2015,04,27,09,27,9.90
2015,04,27,09,28,9.90
2015,04,27,09,29,10.00
2015,04,27,09,30,10.00
2015,04,27,09,31,10.00
2015,04,27,09,32,10.00
2015,04,27,09,33,10.00
2015,04,27,09,34,10.10
2015,04,27,09,35,10.30
2015,04,27,09,36,10.30
2015,04,27,09,37,10.40
2015,04,27,09,38,10.40
2015,04,27,09,39,10.40
2015,04,27,09,40,10.40
2015,04,27,09,41,10.50
2015,04,27,09,42,10.50
2015,04,27,09,43,10.50
2015,04,27,09,44,10.60
2015,04,27,09,45,10.60
2015,04,27,09,46,10.60
2015,04,27,09,47,10.60
2015,04,27,09,48,10.60
2015,04,27,09,49,10.60
2015,04,27,09,50,10.60
2015,04,27,09,51,10.70
2015,04,27,09,52,10.70
2015,04,27,09,53,10.80
2015,04,27,09,54,10.80
2015,04,27,09,55,10.70
2015,04,27,09,56,10.70
2015,04,27,09,57,10.70
2015,04,27,09,58,10.70
2015,04,27,09,59,10.70
2015,04,27,10,00,10.70
2015,04,27,10,01,10.70
2015,04,27,10,02,10.70
2015,04,27,10,03,10.70
2015,04,27,10,04,10.80
2015,04,27,10,05,10.80
2015,04,27,10,06,10.80
2015,04,27,10,07,10.90
2015,04,27,10,08,10.90
2015,04,27,10,09,10.90
2015,04,27,10,10,11.00
2015,04,27,10,11,11.00
2015,04,27,10,12,11.00
2015,04,27,10,13,11.00
2015,04,27,10,14,11.10
2015,04,27,10,15,11.10
2015,04,27,10,16,11.10
2015,04,27,10,17,11.20
2015,04,27,10,18,11.20
2015,04,27,10,19,11.20
2015,04,27,10,20,11.20
2015,04,27,10,21,11.30
2015,04,27,10,22,11.30
2015,04,27,10,23,11.30
2015,04,27,10,24,11.30
2015,04,27,10,25,11.30
2015,04,27,10,26,11.30
2015,04,27,10,27,11.30
2015,04,27,10,28,11.30
2015,04,27,10,29,11.30
2015,04,27,10,30,11.30
2015,04,27,10,31,11.30
2015,04,27,10,32,11.40
2015,04,27,10,33,11.40
2015,04,27,10,34,11.40
2015,04,27,10,35,11.40
2015,04,27,10,36,11.40
2015,04,27,10,37,11.40
2015,04,27,10,38,11.40
2015,04,27,10,39,11.50
2015,04,27,10,40,11.50
2015,04,27,10,41,11.60
2015,04,27,10,42,11.60
2015,04,27,10,43,11.60
2015,04,27,10,44,11.70
2015,04,27,10,45,11.70
2015,04,27,10,46,11.70
2015,04,27,10,47,11.70
2015,04,27,10,48,11.70
2015,04,27,10,49,11.70
2015,04,27,10,50,11.70
2015,04,27,10,51,11.80
2015,04,27,10,52,11.80
2015,04,27,10,53,11.80
2015,04,27,10,54,11.80
2015,04,27,10,55,11.80
2015,04,27,10,56,11.80
2015,04,27,10,57,11.90
2015,04,27,10,58,11.90
2015,04,27,10,59,11.90
2015,04,27,11,00,11.90
2015,04,27,11,01,11.90
2015,04,27,11,02,12.00
2015,04,27,11,03,12.00
2015,04,27,11,04,12.00
2015,04,27,11,05,12.00
2015,04,27,11,06,12.10
2015,04,27,11,07,12.10
2015,04,27,11,08,12.10
2015,04,27,11,09,12.10
2015,04,27,11,10,12.10
2015,04,27,11,11,12.10
2015,04,27,11,12,12.20
2015,04,27,11,13,12.20
2015,04,27,11,14,12.20
2015,04,27,11,15,12.20
2015,04,27,11,16,12.20
2015,04,27,11,17,12.30
2015,04,27,11,18,12.30
2015,04,27,11,19,12.30
2015,04,27,11,20,12.30
2015,04,27,11,21,12.30
2015,04,27,11,22,12.30
2015,04,27,11,23,12.30
2015,04,27,11,24,12.30
2015,04,27,11,25,12.30
2015,04,27,11,26,12.30
2015,04,27,11,27,12.40
2015,04,27,11,28,12.40
2015,04,27,11,29,12.40
2015,04,27,11,30,12.40
2015,04,27,11,31,12.40
2015,04,27,11,32,12.40
2015,04,27,11,33,12.40
2015,04,27,11,34,12.40
2015,04,27,11,35,12.30
2015,04,27,11,36,12.30
2015,04,27,11,37,12.20
2015,04,27,11,38,12.20
2015,04,27,11,39,12.10
2015,04,27,11,40,12.10
2015,04,27,11,41,12.00
2015,04,27,11,42,12.00
2015,04,27,11,43,11.90
2015,04,27,11,44,11.90
2015,04,27,11,45,11.90
2015,04,27,11,46,11.90
2015,04,27,11,47,11.80
2015,04,27,11,48,11.80
2015,04,27,11,49,11.80
2015,04,27,11,50,11.80
2015,04,27,11,51,11.80
2015,04,27,11,52,11.80
2015,04,27,11,53,11.80
2015,04,27,11,54,11.80
2015,04,27,11,55,11.80
2015,04,27,11,56,11.80
2015,04,27,11,57,11.80
2015,04,27,11,58,11.70
2015,04,27,11,59,11.70
2015,04,27,12,00,11.80
2015,04,27,12,01,11.80
2015,04,27,12,02,11.80
2015,04,27,12,03,11.80
2015,04,27,12,04,11.80
2015,04,27,12,05,11.90
2015,04,27,12,06,11.90
2015,04,27,12,07,11.90
2015,04,27,12,08,11.90
2015,04,27,12,09,11.90
2015,04,27,12,10,11.90
2015,04,27,12,11,11.90
2015,04,27,12,12,11.90
2015,04,27,12,13,11.90
2015,04,27,12,14,11.90
2015,04,27,12,15,11.90
2015,04,27,12,16,11.90
2015,04,27,12,17,11.90
2015,04,27,12,18,11.90
2015,04,27,12,19,12.00
2015,04,27,12,20,12.00
2015,04,27,12,21,12.00
2015,04,27,12,22,12.00
2015,04,27,12,23,12.00
2015,04,27,12,24,12.10
2015,04,27,12,25,12.10
2015,04,27,12,26,12.10
2015,04,27,12,27,12.20
2015,04,27,12,28,12.20
2015,04,27,12,29,12.30
2015,04,27,12,30,12.30
2015,04,27,12,31,12.40
2015,04,27,12,32,12.40
2015,04,27,12,33,12.50
2015,04,27,12,34,12.60
2015,04,27,12,35,12.70
2015,04,27,12,36,12.80
2015,04,27,12,37,12.90
2015,04,27,12,38,12.90
2015,04,27,12,39,13.00
2015,04,27,12,40,13.00
2015,04,27,12,41,13.10
2015,04,27,12,42,13.10
2015,04,27,12,43,13.10
2015,04,27,12,44,13.10
2015,04,27,12,45,13.10
2015,04,27,12,46,13.10
2015,04,27,12,47,13.10
2015,04,27,12,48,13.10
2015,04,27,12,49,13.10
2015,04,27,12,50,13.10
2015,04,27,12,51,13.10
2015,04,27,12,52,13.10
2015,04,27,12,53,13.10
2015,04,27,12,54,13.00
2015,04,27,12,55,13.00
2015,04,27,12,56,12.90
2015,04,27,12,57,12.90
2015,04,27,12,58,12.80
2015,04,27,12,59,12.80
2015,04,27,13,00,12.80
2015,04,27,13,01,12.90
2015,04,27,13,02,12.90
2015,04,27,13,03,12.90
2015,04,27,13,04,12.90
2015,04,27,13,05,12.80
2015,04,27,13,06,12.80
2015,04,27,13,07,12.80
2015,04,27,13,08,12.90
2015,04,27,13,09,12.90
2015,04,27,13,10,12.90
2015,04,27,13,11,13.00
2015,04,27,13,12,13.10
2015,04,27,13,13,13.10
2015,04,27,13,14,13.20
2015,04,27,13,15,13.20
2015,04,27,13,16,13.20
2015,04,27,13,17,13.30
2015,04,27,13,18,13.30
2015,04,27,13,19,13.40
2015,04,27,13,20,13.40
2015,04,27,13,21,13.50
2015,04,27,13,22,13.60
2015,04,27,13,23,13.60
2015,04,27,13,24,13.60
2015,04,27,13,25,13.60
2015,04,27,13,26,13.50
2015,04,27,13,27,13.40
2015,04,27,13,28,13.40
2015,04,27,13,29,13.40
2015,04,27,13,30,13.30
2015,04,27,13,31,13.30
2015,04,27,13,32,13.30
2015,04,27,13,33,13.30
2015,04,27,13,34,13.30
2015,04,27,13,35,13.20
2015,04,27,13,36,13.20
2015,04,27,13,37,13.20
2015,04,27,13,38,13.20
2015,04,27,13,39,13.20
2015,04,27,13,40,13.20
2015,04,27,13,41,13.20
2015,04,27,13,42,13.20
2015,04,27,13,43,13.20
2015,04,27,13,44,13.20
2015,04,27,13,45,13.20
2015,04,27,13,46,13.20
2015,04,27,13,47,13.20
2015,04,27,13,48,13.20
2015,04,27,13,49,13.20
2015,04,27,13,50,13.20
2015,04,27,13,51,13.20
2015,04,27,13,52,13.20
2015,04,27,13,53,13.20
2015,04,27,13,54,13.20
2015,04,27,13,55,13.30
2015,04,27,13,56,13.30
2015,04,27,13,57,13.30
2015,04,27,13,58,13.30
2015,04,27,13,59,13.30
2015,04,27,14,00,13.20
2015,04,27,14,01,13.30
2015,04,27,14,02,13.30
2015,04,27,14,03,13.30
2015,04,27,14,04,13.40
2015,04,27,14,05,13.50
2015,04,27,14,06,13.60
2015,04,27,14,07,13.70
2015,04,27,14,08,13.70
2015,04,27,14,09,13.80
2015,04,27,14,10,13.80
2015,04,27,14,11,13.70
2015,04,27,14,12,13.70
2015,04,27,14,13,13.60
2015,04,27,14,14,13.50
2015,04,27,14,15,13.40
2015,04,27,14,16,13.30
2015,04,27,14,17,13.30
2015,04,27,14,18,13.20
2015,04,27,14,19,13.20
2015,04,27,14,20,13.20
2015,04,27,14,21,13.20
2015,04,27,14,22,13.20
2015,04,27,14,23,13.20
2015,04,27,14,24,13.20
2015,04,27,14,25,13.20
2015,04,27,14,26,13.30
2015,04,27,14,27,13.30
2015,04,27,14,28,13.30
2015,04,27,14,29,13.30
2015,04,27,14,30,13.40
2015,04,27,14,31,13.40
2015,04,27,14,32,13.40
2015,04,27,14,33,13.50
2015,04,27,14,34,13.50
2015,04,27,14,35,13.60
2015,04,27,14,36,13.60
2015,04,27,14,37,13.70
2015,04,27,14,38,13.70
2015,04,27,14,39,13.70
2015,04,27,14,40,13.80
2015,04,27,14,41,13.80
2015,04,27,14,42,13.80
2015,04,27,14,43,13.80
2015,04,27,14,44,13.80
2015,04,27,14,45,13.80
2015,04,27,14,46,13.80
2015,04,27,14,47,13.80
2015,04,27,14,48,13.70
2015,04,27,14,49,13.70
2015,04,27,14,50,13.70
2015,04,27,14,51,13.70
2015,04,27,14,52,13.70
2015,04,27,14,53,13.70
2015,04,27,14,54,13.70
2015,04,27,14,55,13.70
2015,04,27,14,56,13.70
2015,04,27,14,57,13.70
2015,04,27,14,58,13.70
2015,04,27,14,59,13.70
2015,04,27,15,00,13.80
2015,04,27,15,01,13.80
2015,04,27,15,02,13.80
2015,04,27,15,03,13.90
2015,04,27,15,04,13.90
2015,04,27,15,05,13.90
2015,04,27,15,06,13.90
2015,04,27,15,07,13.90
2015,04,27,15,08,13.90
2015,04,27,15,09,14.00
2015,04,27,15,10,14.00
2015,04,27,15,11,14.00
2015,04,27,15,12,14.00
2015,04,27,15,13,14.10
2015,04,27,15,14,14.10
2015,04,27,15,15,14.20
2015,04,27,15,16,14.20
2015,04,27,15,17,14.30
2015,04,27,15,18,14.30
2015,04,27,15,19,14.40
2015,04,27,15,20,14.50
2015,04,27,15,21,14.60
2015,04,27,15,22,14.60
2015,04,27,15,23,14.70
2015,04,27,15,24,14.70
2015,04,27,15,25,14.70
2015,04,27,15,26,14.70
2015,04,27,15,27,14.80
2015,04,27,15,28,14.80
2015,04,27,15,29,14.70
2015,04,27,15,30,14.70
2015,04,27,15,31,14.70
2015,04,27,15,32,14.80
2015,04,27,15,33,14.80
2015,04,27,15,34,14.90
2015,04,27,15,35,14.90
2015,04,27,15,36,14.90
2015,04,27,15,37,14.90
2015,04,27,15,38,14.90
2015,04,27,15,39,14.90
2015,04,27,15,40,14.80
2015,04,27,15,41,14.80
2015,04,27,15,42,14.80
2015,04,27,15,43,14.80
2015,04,27,15,44,14.80
2015,04,27,15,45,14.80
2015,04,27,15,46,14.80
2015,04,27,15,47,14.90
2015,04,27,15,48,14.90
2015,04,27,15,49,14.90
2015,04,27,15,50,14.80
2015,04,27,15,51,14.80
2015,04,27,15,52,14.90
2015,04,27,15,53,14.90
2015,04,27,15,54,15.00
2015,04,27,15,55,15.00
2015,04,27,15,56,15.00
2015,04,27,15,57,15.10
2015,04,27,15,58,15.10
2015,04,27,15,59,15.10
2015,04,27,16,00,15.10
2015,04,27,16,01,15.10
2015,04,27,16,02,15.00
2015,04,27,16,03,14.90
2015,04,27,16,04,14.80
2015,04,27,16,05,14.70
2015,04,27,16,06,14.70
2015,04,27,16,07,14.70
2015,04,27,16,08,14.70
2015,04,27,16,09,14.70
2015,04,27,16,10,14.70
2015,04,27,16,11,14.80
2015,04,27,16,12,14.80
2015,04,27,16,13,14.90
2015,04,27,16,14,14.90
2015,04,27,16,15,14.90
2015,04,27,16,16,15.00
2015,04,27,16,17,15.00
2015,04,27,16,18,15.10
2015,04,27,16,19,15.10
2015,04,27,16,20,15.20
2015,04,27,16,21,15.20
2015,04,27,16,22,15.30
2015,04,27,16,23,15.20
2015,04,27,16,24,15.20
2015,04,27,16,25,15.10
2015,04,27,16,26,15.10
2015,04,27,16,27,15.10
2015,04,27,16,28,15.20
2015,04,27,16,29,15.20
2015,04,27,16,30,15.20
2015,04,27,16,31,15.30
2015,04,27,16,32,15.40
2015,04,27,16,33,15.40
2015,04,27,16,34,15.50
2015,04,27,16,35,15.50
2015,04,27,16,36,15.60
2015,04,27,16,37,15.70
2015,04,27,16,38,15.70
2015,04,27,16,39,15.80
2015,04,27,16,40,15.80
2015,04,27,16,41,15.80
2015,04,27,16,42,15.90
2015,04,27,16,43,16.00
2015,04,27,16,44,16.00
2015,04,27,16,45,16.00
2015,04,27,16,46,16.10
2015,04,27,16,47,16.00
2015,04,27,16,48,16.00
2015,04,27,16,49,16.00
2015,04,27,16,50,15.90
2015,04,27,16,51,15.80
2015,04,27,16,52,15.70
2015,04,27,16,53,15.60
2015,04,27,16,54,15.50
2015,04,27,16,55,15.40
2015,04,27,16,56,15.30
2015,04,27,16,57,15.30
2015,04,27,16,58,15.20
2015,04,27,16,59,15.10
2015,04,27,17,00,15.00
2015,04,27,17,01,15.00
2015,04,27,17,02,14.90
2015,04,27,17,03,14.90
2015,04,27,17,04,14.90
2015,04,27,17,05,14.90
2015,04,27,17,06,14.90
2015,04,27,17,07,14.90
2015,04,27,17,08,15.00
2015,04,27,17,09,15.00
2015,04,27,17,10,15.10
2015,04,27,17,11,15.10
2015,04,27,17,12,15.20
2015,04,27,17,13,15.20
2015,04,27,17,14,15.10
2015,04,27,17,15,15.00
2015,04,27,17,16,14.90
2015,04,27,17,17,14.80
2015,04,27,17,18,14.70
2015,04,27,17,19,14.60
2015,04,27,17,20,14.60
2015,04,27,17,21,14.60
2015,04,27,17,22,14.60
2015,04,27,17,23,14.60
2015,04,27,17,24,14.60
2015,04,27,17,25,14.70
2015,04,27,17,26,14.80
2015,04,27,17,27,14.90
2015,04,27,17,28,15.00
2015,04,27,17,29,15.10
2015,04,27,17,30,15.20
2015,04,27,17,31,15.40
2015,04,27,17,32,15.50
2015,04,27,17,33,15.60
2015,04,27,17,34,15.70
2015,04,27,17,35,15.80
2015,04,27,17,36,15.80
2015,04,27,17,37,15.80
2015,04,27,17,38,15.80
2015,04,27,17,39,15.80
2015,04,27,17,40,15.80
2015,04,27,17,41,15.80
2015,04,27,17,42,15.90
2015,04,27,17,43,15.80
2015,04,27,17,44,15.80
2015,04,27,17,45,15.60
2015,04,27,17,46,15.50
2015,04,27,17,47,15.50
2015,04,27,17,48,15.40
2015,04,27,17,49,15.40
2015,04,27,17,50,15.30
2015,04,27,17,51,15.30
2015,04,27,17,52,15.30
2015,04,27,17,53,15.30
2015,04,27,17,54,15.20
2015,04,27,17,55,15.20
2015,04,27,17,56,15.30
2015,04,27,17,57,15.30
2015,04,27,17,58,15.40
2015,04,27,17,59,15.40
2015,04,27,18,00,15.50
2015,04,27,18,01,15.50
2015,04,27,18,02,15.50
2015,04,27,18,03,15.60
2015,04,27,18,04,15.60
2015,04,27,18,05,15.60
2015,04,27,18,06,15.50
2015,04,27,18,07,15.50
2015,04,27,18,08,15.40
2015,04,27,18,09,15.40
2015,04,27,18,10,15.40
2015,04,27,18,11,15.30
2015,04,27,18,12,15.30
2015,04,27,18,13,15.30
2015,04,27,18,14,15.30
2015,04,27,18,15,15.30
2015,04,27,18,16,15.30
2015,04,27,18,17,15.30
2015,04,27,18,18,15.30
2015,04,27,18,19,15.20
2015,04,27,18,20,15.20
2015,04,27,18,21,15.20
2015,04,27,18,22,15.20
2015,04,27,18,23,15.20
2015,04,27,18,24,15.20
2015,04,27,18,25,15.20
2015,04,27,18,26,15.20
2015,04,27,18,27,15.20
2015,04,27,18,28,15.20
2015,04,27,18,29,15.20
2015,04,27,18,30,15.20
2015,04,27,18,31,15.20
2015,04,27,18,32,15.20
2015,04,27,18,33,15.20
2015,04,27,18,34,15.20
2015,04,27,18,35,15.20
2015,04,27,18,36,15.10
2015,04,27,18,37,15.10
2015,04,27,18,38,15.10
2015,04,27,18,39,15.10
2015,04,27,18,40,15.10
2015,04,27,18,41,15.10
2015,04,27,18,42,15.10
2015,04,27,18,43,15.10
2015,04,27,18,44,15.20
2015,04,27,18,45,15.20
2015,04,27,18,46,15.20
2015,04,27,18,47,15.30
2015,04,27,18,48,15.30
2015,04,27,18,49,15.30
2015,04,27,18,50,15.30
2015,04,27,18,51,15.30
2015,04,27,18,52,15.30
2015,04,27,18,53,15.30
2015,04,27,18,54,15.20
2015,04,27,18,55,15.20
2015,04,27,18,56,15.20
2015,04,27,18,57,15.20
2015,04,27,18,58,15.20
2015,04,27,18,59,15.10
2015,04,27,19,00,15.10
2015,04,27,19,01,15.20
2015,04,27,19,02,15.20
2015,04,27,19,03,15.20
2015,04,27,19,04,15.20
2015,04,27,19,05,15.10
2015,04,27,19,06,15.10
2015,04,27,19,07,15.10
2015,04,27,19,08,15.10
2015,04,27,19,09,15.10
2015,04,27,19,10,15.00
2015,04,27,19,11,15.00
2015,04,27,19,12,15.00
2015,04,27,19,13,15.00
2015,04,27,19,14,15.00
2015,04,27,19,15,14.90
2015,04,27,19,16,14.90
2015,04,27,19,17,14.90
2015,04,27,19,18,14.90
2015,04,27,19,19,14.90
2015,04,27,19,20,14.90
2015,04,27,19,21,14.80
2015,04,27,19,22,14.80
2015,04,27,19,23,14.80
2015,04,27,19,24,14.80
2015,04,27,19,25,14.80
2015,04,27,19,26,14.80
2015,04,27,19,27,14.70
2015,04,27,19,28,14.70
2015,04,27,19,29,14.70
2015,04,27,19,30,14.70
2015,04,27,19,31,14.70
2015,04,27,19,32,14.70
2015,04,27,19,33,14.60
2015,04,27,19,34,14.60
2015,04,27,19,35,14.60
2015,04,27,19,36,14.60
2015,04,27,19,37,14.60
2015,04,27,19,38,14.50
2015,04,27,19,39,14.50
2015,04,27,19,40,14.40
2015,04,27,19,41,14.40
2015,04,27,19,42,14.40
2015,04,27,19,43,14.30
2015,04,27,19,44,14.30
2015,04,27,19,45,14.30
2015,04,27,19,46,14.30
2015,04,27,19,47,14.20
2015,04,27,19,48,14.20
2015,04,27,19,49,14.20
2015,04,27,19,50,14.10
2015,04,27,19,51,14.10
2015,04,27,19,52,14.10
2015,04,27,19,53,14.00
2015,04,27,19,54,14.00
2015,04,27,19,55,14.00
2015,04,27,19,56,13.90
2015,04,27,19,57,13.90
2015,04,27,19,58,13.90
2015,04,27,19,59,13.80
2015,04,27,20,00,13.80
2015,04,27,20,01,13.80
2015,04,27,20,02,13.80
2015,04,27,20,03,13.80
2015,04,27,20,04,13.70
2015,04,27,20,05,13.70
2015,04,27,20,06,13.70
2015,04,27,20,07,13.70
2015,04,27,20,08,13.70
2015,04,27,20,09,13.70
2015,04,27,20,10,13.70
2015,04,27,20,11,13.60
2015,04,27,20,12,13.60
2015,04,27,20,13,13.60
2015,04,27,20,14,13.60
2015,04,27,20,15,13.60
2015,04,27,20,16,13.60
2015,04,27,20,17,13.60
2015,04,27,20,18,13.60
2015,04,27,20,19,13.50
2015,04,27,20,20,13.50
2015,04,27,20,21,13.50
2015,04,27,20,22,13.50
2015,04,27,20,23,13.50
2015,04,27,20,24,13.50
2015,04,27,20,25,13.50
2015,04,27,20,26,13.50
2015,04,27,20,27,13.50
2015,04,27,20,28,13.50
2015,04,27,20,29,13.40
2015,04,27,20,30,13.40
2015,04,27,20,31,13.40
2015,04,27,20,32,13.40
2015,04,27,20,33,13.40
2015,04,27,20,34,13.40
2015,04,27,20,35,13.40
2015,04,27,20,36,13.40
2015,04,27,20,37,13.40
2015,04,27,20,38,13.30
2015,04,27,20,39,13.30
2015,04,27,20,40,13.30
2015,04,27,20,41,13.30
2015,04,27,20,42,13.30
2015,04,27,20,43,13.30
2015,04,27,20,44,13.30
2015,04,27,20,45,13.30
2015,04,27,20,46,13.30
2015,04,27,20,47,13.30
2015,04,27,20,48,13.30
2015,04,27,20,49,13.30
2015,04,27,20,50,13.30
2015,04,27,20,51,13.20
2015,04,27,20,52,13.20
2015,04,27,20,53,13.20
2015,04,27,20,54,13.20
2015,04,27,20,55,13.10
2015,04,27,20,56,13.10
2015,04,27,20,57,13.10
2015,04,27,20,58,13.00
2015,04,27,20,59,13.00
2015,04,27,21,00,12.90
2015,04,27,21,01,12.90
2015,04,27,21,02,12.90
2015,04,27,21,03,12.90
2015,04,27,21,04,12.80
2015,04,27,21,05,12.80
2015,04,27,21,06,12.80
2015,04,27,21,07,12.80
2015,04,27,21,08,12.70
2015,04,27,21,09,12.70
2015,04,27,21,10,12.70
2015,04,27,21,11,12.70
2015,04,27,21,12,12.70
2015,04,27,21,13,12.60
2015,04,27,21,14,12.60
2015,04,27,21,15,12.60
2015,04,27,21,16,12.60
2015,04,27,21,17,12.60
2015,04,27,21,18,12.60
2015,04,27,21,19,12.60
2015,04,27,21,20,12.60
2015,04,27,21,21,12.60
2015,04,27,21,22,12.60
2015,04,27,21,23,12.60
2015,04,27,21,24,12.60
2015,04,27,21,25,12.60
2015,04,27,21,26,12.50
2015,04,27,21,27,12.50
2015,04,27,21,28,12.50
2015,04,27,21,29,12.50
2015,04,27,21,30,12.50
2015,04,27,21,31,12.40
2015,04,27,21,32,12.40
2015,04,27,21,33,12.40
2015,04,27,21,34,12.40
2015,04,27,21,35,12.40
2015,04,27,21,36,12.40
2015,04,27,21,37,12.40
2015,04,27,21,38,12.40
2015,04,27,21,39,12.40
2015,04,27,21,40,12.40
2015,04,27,21,41,12.50
2015,04,27,21,42,12.50
2015,04,27,21,43,12.40
2015,04,27,21,44,12.40
2015,04,27,21,45,12.40
2015,04,27,21,46,12.50
2015,04,27,21,47,12.50
2015,04,27,21,48,12.50
2015,04,27,21,49,12.50
2015,04,27,21,50,12.40
2015,04,27,21,51,12.40
2015,04,27,21,52,12.40
2015,04,27,21,53,12.40
2015,04,27,21,54,12.40
2015,04,27,21,55,12.40
2015,04,27,21,56,12.40
2015,04,27,21,57,12.40
2015,04,27,21,58,12.40
2015,04,27,21,59,12.40
2015,04,27,22,00,12.40
2015,04,27,22,01,12.40
2015,04,27,22,02,12.40
2015,04,27,22,03,12.30
2015,04,27,22,04,12.30
2015,04,27,22,05,12.30
2015,04,27,22,06,12.40
2015,04,27,22,07,12.40
2015,04,27,22,08,12.40
2015,04,27,22,09,12.30
2015,04,27,22,10,12.30
2015,04,27,22,11,12.30
2015,04,27,22,12,12.30
2015,04,27,22,13,12.30
2015,04,27,22,14,12.30
2015,04,27,22,15,12.30
2015,04,27,22,16,12.30
2015,04,27,22,17,12.20
2015,04,27,22,18,12.20
2015,04,27,22,19,12.20
2015,04,27,22,20,12.20
2015,04,27,22,21,12.20
2015,04,27,22,22,12.20
2015,04,27,22,23,12.20
2015,04,27,22,24,12.20
2015,04,27,22,25,12.20
2015,04,27,22,26,12.20
2015,04,27,22,27,12.20
2015,04,27,22,28,12.20
2015,04,27,22,29,12.20
2015,04,27,22,30,12.10
2015,04,27,22,31,12.10
2015,04,27,22,32,12.10
2015,04,27,22,33,12.10
2015,04,27,22,34,12.10
2015,04,27,22,35,12.10
2015,04,27,22,36,12.10
2015,04,27,22,37,12.10
2015,04,27,22,38,12.10
2015,04,27,22,39,12.10
2015,04,27,22,40,12.10
2015,04,27,22,41,12.10
2015,04,27,22,42,12.10
2015,04,27,22,43,12.10
2015,04,27,22,44,12.00
2015,04,27,22,45,12.00
2015,04,27,22,46,12.00
2015,04,27,22,47,12.00
2015,04,27,22,48,12.00
2015,04,27,22,49,11.90
2015,04,27,22,50,11.90
2015,04,27,22,51,11.90
2015,04,27,22,52,11.90
2015,04,27,22,53,11.90
2015,04,27,22,54,11.90
2015,04,27,22,55,11.90
2015,04,27,22,56,11.90
2015,04,27,22,57,11.80
2015,04,27,22,58,11.80
2015,04,27,22,59,11.80
2015,04,27,23,00,11.80
2015,04,27,23,01,11.80
2015,04,27,23,02,11.80
2015,04,27,23,03,11.80
2015,04,27,23,04,11.80
2015,04,27,23,05,11.80
2015,04,27,23,06,11.80
2015,04,27,23,07,11.80
2015,04,27,23,08,11.80
2015,04,27,23,09,11.80
2015,04,27,23,10,11.80
2015,04,27,23,11,11.80
2015,04,27,23,12,11.80
2015,04,27,23,13,11.80
2015,04,27,23,14,11.80
2015,04,27,23,15,11.80
2015,04,27,23,16,11.80
2015,04,27,23,17,11.80
2015,04,27,23,18,11.70
2015,04,27,23,19,11.70
2015,04,27,23,20,11.70
2015,04,27,23,21,11.70
2015,04,27,23,22,11.70
2015,04,27,23,23,11.70
2015,04,27,23,24,11.70
2015,04,27,23,25,11.70
2015,04,27,23,26,11.70
2015,04,27,23,27,11.70
2015,04,27,23,28,11.70
2015,04,27,23,29,11.70
2015,04,27,23,30,11.70
2015,04,27,23,31,11.60
2015,04,27,23,32,11.60
2015,04,27,23,33,11.60
2015,04,27,23,34,11.60
2015,04,27,23,35,11.60
2015,04,27,23,36,11.60
2015,04,27,23,37,11.60
2015,04,27,23,38,11.60